Medicine Hat, Alberta

3:39 PM MST on January 19, 2018 (GMT -0700)
Medicine Hat

Weather History for CYXH - March, 2012

Change the Weather History Date:

Wednesday, March 7, 2012

  Actual Average Record
Temperature  
Mean Temperature 29 °F -  
Max Temperature 41 °F 44 °F 60 °F (2007)
Min Temperature 17 °F 22 °F -42 °F (2017)
Degree Days  
Heating Degree Days 36    
Moisture  
Dew Point 18 °F    
Average Humidity 69    
Maximum Humidity 93    
Minimum Humidity 36    
Precipitation  
Precipitation 0.00 in 0.02 in - ()
Sea Level Pressure  
Sea Level Pressure 30.06 in    
Wind  
Wind Speed 8 mph ()    
Max Wind Speed 16 mph    
Max Gust Speed 22 mph    
Visibility 10.6 miles    
Events      
Averages and records for this station are not official NWS values.
T = Trace of Precipitation, MM = Missing Value Source: Averaged Metar Reports

Daily Weather History Graph

Daily Weather History Graph

Search for Another Location

Airport or City:

Trip Planner

Search our weather history database for the weather conditions in past years. The results will help you decide how hot, cold, wet, or windy it might be!

Date:

Astronomy

Mar. 07, 2012 Rise Set
Actual Time 6:52 AM MST 6:15 PM MST
Civil Twilight 6:20 AM MST 6:48 PM MST
Nautical Twilight 5:42 AM MST 7:25 PM MST
Astronomical Twilight 5:04 AM MST 8:03 PM MST
Moon 5:59 PM MST (3/7) 6:04 AM MST (3/7)
Length of Visible Light 12h 28m
Length of Day
11h 23m
Waxing Gibbous, 99% of the Moon is Illuminated
Mar 7
Waxing Gibbous
Mar 8
Full
Mar 14
Last Quarter
Mar 22
New
Mar 30
First Quarter

Hourly Weather History & Observations

Time (MST) Temp. Windchill Dew Point Humidity Pressure Visibility Wind Dir Wind Speed Gust Speed Precip Events Conditions
12:00 AM 19.4 °F 10.4 °F 15.8 °F 86% 30.01 in 9.0 mi SSW 6.9 mph - N/A   Overcast
1:00 AM 21.2 °F 16.4 °F 17.6 °F 86% 29.99 in 9.0 mi SSW 3.5 mph - N/A   Overcast
2:00 AM 21.2 °F - 17.6 °F 86% 29.96 in 9.0 mi South 2.3 mph - N/A   Clear
3:00 AM 23.0 °F 11.1 °F 17.6 °F 80% 29.92 in 9.0 mi SW 12.7 mph - N/A   Clear
4:00 AM 23.0 °F 11.7 °F 17.6 °F 80% 29.92 in 9.0 mi SW 11.5 mph 19.6 mph N/A   Partly Cloudy
6:00 AM 19.4 °F 7.2 °F 14.0 °F 80% 29.95 in 15.0 mi WSW 11.5 mph - N/A   Clear
7:00 AM 17.6 °F 12.3 °F 15.8 °F 93% 29.99 in 30.0 mi SSW 3.5 mph - N/A   Mostly Cloudy
8:00 AM 19.4 °F 10.4 °F 15.8 °F 86% 30.01 in 30.0 mi WSW 6.9 mph - N/A   Mostly Cloudy
9:00 AM 21.2 °F 10.1 °F 15.8 °F 80% 30.02 in 30.0 mi SW 10.4 mph - N/A   Partly Cloudy
10:00 AM 24.8 °F 15.3 °F 17.6 °F 74% 30.05 in 30.0 mi WSW 9.2 mph - N/A   Partly Cloudy
11:00 AM 28.4 °F 18.0 °F 19.4 °F 69% 30.05 in 30.0 mi WSW 12.7 mph - N/A   Partly Cloudy
12:00 PM 33.8 °F 23.5 °F 19.4 °F 56% 30.07 in 30.0 mi West 16.1 mph - N/A   Mostly Cloudy
1:00 PM 37.4 °F 28.5 °F 19.4 °F 48% 30.07 in 30.0 mi West 15.0 mph 21.9 mph N/A   Mostly Cloudy
2:00 PM 37.4 °F 28.5 °F 17.6 °F 45% 30.06 in 30.0 mi NW 15.0 mph 21.9 mph N/A   Overcast
3:00 PM 37.4 °F 30.3 °F 21.2 °F 52% 30.07 in 30.0 mi WNW 10.4 mph 18.4 mph N/A   Overcast
4:00 PM 41.0 °F 33.5 °F 15.8 °F 36% 30.07 in 30.0 mi West 13.8 mph - N/A   Mostly Cloudy
5:00 PM 39.2 °F 32.0 °F 15.8 °F 39% 30.08 in 30.0 mi NW 11.5 mph - N/A   Partly Cloudy
6:00 PM 35.6 °F 30.7 °F 19.4 °F 52% 30.11 in 30.0 mi West 5.8 mph - N/A   Partly Cloudy
7:00 PM 32.0 °F 25.6 °F 21.2 °F 64% 30.14 in 15.0 mi West 6.9 mph - N/A   Partly Cloudy
8:00 PM 30.2 °F 25.4 °F 21.2 °F 69% 30.17 in 15.0 mi WNW 4.6 mph - N/A   Scattered Clouds
9:00 PM 30.2 °F 22.6 °F 23.0 °F 75% 30.18 in 9.0 mi SSW 8.1 mph - N/A   Partly Cloudy
10:00 PM 26.6 °F 17.5 °F 21.2 °F 80% 30.19 in 9.0 mi SW 9.2 mph - N/A   Clear
11:00 PM 26.6 °F 18.2 °F 21.2 °F 80% 30.19 in 9.0 mi SW 8.1 mph - N/A   Clear